#timestamp,LO_Frequency,Hit,StdDev 
1649674815.4,286047005.0,P
1649674835.3,286047002.9,N
1649674855.1,286047000.9,N
1649674875.8,286046997.3,N
1649674895.7,286046999.1,N
1649674915.5,286046997.7,N
1649674935.4,286046998.9,N
1649674955.2,286047002.3,N
1649674975.0,286046998.9,N
1649674975.9,286046998.9,N
1649674995.8,286046997.1,N
1649675015.6,286046996.0,N
1649675035.4,286046995.2,N
1649675055.3,286046993.5,N
1649675075.1,286046993.4,N
1649675095.9,286046993.7,N
1649675115.7,286046994.7,N
1649675135.5,286046993.2,N
1649675155.4,286046995.3,N
1649675175.2,286047001.2,N
1649675195.0,286047000.8,N
1649675195.9,286047000.8,N
1649675215.8,286046998.0,N
1649675235.6,286046999.4,N
1649675255.5,286046997.9,N
1649675275.3,286046999.1,N
1649675295.1,286046997.1,N
1649675315.9,286046997.6,N
1649675335.7,286046998.8,N
1649675355.5,286046998.7,N
1649675375.4,286046994.9,N
1649675395.2,286046994.0,N
1649675415.1,286046988.9,Y
1649675416.0,286046988.9,P
1649675435.8,286046997.8,N
1649675455.6,286047001.1,N
1649675475.5,286046997.1,N
1649675495.3,286046996.1,N
1649675515.1,286046990.0,N
1649675535.9,286046982.6,Y
1649675555.7,286046984.1,P
1649675575.6,286046981.7,P
1649675595.4,286046975.8,P
1649675615.2,286046976.6,Y
1649675635.1,286046990.6,P
1649675636.0,286046990.6,N
1649675655.8,286046987.4,P
1649675675.7,286046989.9,Y
1649675695.5,286046996.0,P
1649675715.3,286046993.9,N
1649675735.2,286046993.6,N
1649675755.9,286046993.6,N
1649675775.7,286046993.9,N
1649675795.6,286046994.4,N
1649675815.4,286046991.8,Y
1649675835.3,286047008.0,P
1649675855.1,286047011.9,N
1649675856.0,286047011.9,N
1649675875.8,286047005.3,N
1649675895.7,286047000.3,N
1649675915.5,286047000.9,N
1649675935.3,286046998.5,N
1649675955.2,286046996.8,N
1649675975.0,286046997.1,N
1649675975.9,286046997.1,N
1649675995.8,286046997.2,N
1649676015.6,286046998.7,N
1649676035.4,286047001.9,N
1649676055.3,286047001.9,N
1649676075.1,286047003.6,N
1649676095.8,286047005.1,N
1649676115.7,286047003.2,N
1649676135.5,286047004.5,N
1649676155.3,286047003.2,N
1649676175.2,286047005.3,N
1649676195.0,286047008.2,N
1649676195.9,286047008.2,N
1649676215.8,286047006.8,N
1649676235.6,286047001.4,N
1649676255.4,286047000.9,N
1649676275.3,286046997.2,N
1649676295.1,286046997.0,N
1649676315.9,286046995.5,N
1649676335.7,286046995.5,N
1649676355.5,286046995.9,N
1649676375.4,286046996.0,N
1649676395.2,286046993.1,N
1649676415.0,286046994.4,N
1649676415.9,286046994.4,N
1649676435.8,286046998.0,N
1649676455.6,286047002.5,N
1649676475.5,286047002.9,N
1649676495.3,286046998.8,N
1649676515.1,286047002.7,N
1649676535.9,286047002.0,N
1649676555.7,286046998.3,N
1649676575.5,286046999.6,N
1649676595.4,286046998.0,N
1649676615.2,286046995.8,N
1649676635.0,286046994.7,N
1649676636.0,286046994.7,N
1649676655.8,286046991.1,N
1649676675.6,286046990.4,N
1649676695.5,286046990.8,N
1649676715.3,286046990.2,N
1649676735.1,286046989.3,N
1649676755.9,286046995.3,N
1649676775.7,286047002.6,N
1649676795.6,286047001.1,N
1649676815.4,286047002.2,N
1649676835.2,286047009.1,N
1649676855.1,286047003.7,N
1649676856.0,286047003.7,N
1649676875.8,286047000.3,N
1649676895.6,286046996.4,N
1649676915.5,286046995.3,N
1649676935.3,286046993.7,N
1649676955.2,286046997.2,N
1649676975.9,286046997.5,N
1649676995.7,286046996.8,N
1649677015.6,286046994.3,N
1649677035.4,286046996.0,N
1649677055.2,286046996.8,N
1649677075.1,286046997.6,N
1649677076.0,286046997.6,N
1649677095.8,286046993.3,N
1649677115.7,286046991.7,N
1649677135.5,286046992.5,N
1649677155.3,286046991.6,N
1649677175.2,286046988.4,N
1649677195.0,286046986.2,N
1649677195.9,286046986.2,N
1649677215.7,286046984.2,N
1649677235.6,286046988.1,N
1649677255.4,286046986.3,N
1649677275.3,286046986.8,N
1649677295.1,286046986.7,N
1649677296.0,286046986.7,N
1649677315.8,286046984.1,N
1649677335.7,286046985.0,N
1649677355.5,286046983.9,N
1649677375.3,286046982.9,N
1649677395.2,286046983.0,Y
1649677415.0,286046990.7,P
1649677415.9,286046990.7,P
1649677435.8,286046991.0,P
1649677455.6,286046990.7,Y
1649677475.4,286046998.6,P
1649677495.3,286046998.9,N
1649677515.1,286047000.7,N
1649677535.9,286046998.4,N
1649677555.7,286047001.1,N
1649677575.5,286046999.5,N
1649677595.4,286046994.9,N
1649677615.2,286046998.9,N
1649677635.0,286047002.1,N
1649677635.9,286047002.1,N
1649677655.8,286047006.6,N
1649677675.6,286047018.5,Y
1649677695.5,286047025.1,P
1649677715.3,286047027.7,N
1649677735.1,286047029.5,N
1649677755.9,286047021.0,N
1649677775.7,286047017.5,N
1649677795.5,286047016.4,N
1649677815.4,286047013.5,N
1649677835.2,286047017.5,N
1649677855.1,286047016.6,N
1649677856.0,286047016.6,N
1649677875.8,286047011.2,N
1649677895.6,286047007.9,N
1649677915.5,286047010.8,N
1649677935.3,286047008.7,N
1649677955.1,286047006.3,N
1649677975.9,286047007.0,N
1649677995.7,286047003.5,N
1649678015.6,286047006.8,N
1649678035.4,286047007.7,N
1649678055.2,286047011.9,N
1649678075.1,286047011.1,N
1649678076.0,286047011.1,N
1649678095.8,286047011.3,N
1649678115.6,286047016.4,N
1649678135.5,286047013.0,N
1649678155.3,286047012.8,N
1649678175.2,286047013.8,N
1649678195.9,286047015.5,N
1649678215.7,286047015.1,N
1649678235.6,286047013.8,N
1649678255.4,286047011.1,N
1649678275.2,286047010.0,N
1649678295.1,286047008.3,N
1649678296.0,286047008.3,N
1649678315.8,286047013.3,Y
1649678335.7,286046999.9,P
1649678355.5,286046997.2,N
1649678375.3,286046997.9,N
1649678395.2,286047003.7,N
